[[{"header":{"parameterUnit":"m.s-1","parameterCategory":1,"la1":30.2991,"la2":30.254,"lo1":-89.0895,"lo2":-89.0444,"dy":0.0017,"dx":0.0017,"nx":28,"ny":28,"refTime":"2025-09-03T03:00:00:Z","depth":0,"parameterNumber":2,"parameterNumberName":"U-component_of_WINDS"},"data":[0,0,0,0,0,0,0,0,0,0,0,0,0,0,0,0,0,0,0,0,0,0,0,0,0,0,0,0,0,0,0,0,0,0,0,0,0,0,0,0,0,0,0,0,0,0,0,0,0,0,0,0,0,0,0,0,0,0,1.293,1.293,0,1.2886,1.2885,1.2885,1.2853,1.2852,1.2852,1.2852,1.2806,1.2805,1.2804,0,0,0,0,0,0,0,0,0,0,0,0,0,1.2986,1.2985,1.293,1.293,1.2929,1.2886,1.2885,1.2884,1.2853,1.2852,1.2852,1.2852,1.2806,1.2805,1.2804,0,0,0,0,0,0,0,0,0,0,0,0,0,1.2953,1.2985,1.293,1.2908,1.2906,1.2886,1.2885,1.2884,1.2853,1.2852,1.2852,1.2852,1.2807,1.2805,1.2804,1.2803,0,0,1.2799,1.2799,0,0,0,0,0,0,0,0,1.2955,1.2951,1.2912,1.2909,1.2907,1.2874,1.2888,1.2857,1.2853,1.2873,1.2852,1.2851,1.2829,1.2826,1.2818,1.28,1.2799,1.2799,1.2798,1.2798,1.2797,0,0,0,0,0,0,0,1.2958,1.2953,1.2912,1.2911,1.2908,1.29,1.2895,1.2882,1.2854,1.2871,1.2869,1.2864,1.2828,1.282,1.2817,1.2798,1.2799,1.2798,1.2797,1.2797,1.2774,1.2774,0,0,0,0,0,0,1.2963,1.2955,1.2914,1.2911,1.2931,1.2899,1.2893,1.2885,1.2854,1.2849,1.2864,1.2862,1.2822,1.2819,1.2815,1.281,1.2798,1.2796,1.2796,1.2773,1.2774,1.2774,0,0,0,0,0,0,1.2965,1.296,1.2916,1.2932,1.2926,1.2898,1.2889,1.2884,1.2876,1.2849,1.2843,1.2861,1.2822,1.2817,1.2805,1.2808,1.2796,1.2794,1.2773,1.2773,1.2774,1.28,0,0,0,0,0,0,1.2967,1.2961,1.2961,1.2933,1.2925,1.2907,1.289,1.2884,1.2874,1.2871,1.2845,1.284,1.2821,1.2808,1.2804,1.2805,1.2793,1.2773,1.2773,1.2774,1.2799,1.2801,1.2803,0,0,0,0,0,1.2969,1.297,1.2961,1.2956,1.2925,1.2908,1.2903,1.2882,1.2875,1.2873,1.2855,1.2841,1.2808,1.2807,1.2802,1.2803,1.2772,1.2773,1.2774,1.2798,1.2801,1.2803,0,0,0,0,0,0,1.3,1.2966,1.2955,1.2948,1.2931,1.2902,1.29,1.2886,1.2871,1.2869,1.2843,1.2838,1.2828,1.2814,1.2813,1.2799,1.2788,1.2788,1.2808,1.2811,1.2813,1.2816,1.2792,0,0,0,0,0,1.3005,1.2995,1.2966,1.2962,1.2954,1.2929,1.2921,1.2906,1.2887,1.2879,1.286,1.2842,1.2827,1.2818,1.2804,1.2797,1.2789,1.2795,1.2797,1.2799,1.2799,1.2792,1.2794,1.2776,1.2776,1.2776,0,0,1.3018,1.2998,1.2993,1.2968,1.2953,1.2941,1.2923,1.2912,1.2903,1.2878,1.2865,1.285,1.2828,1.2817,1.2812,1.2806,1.2802,1.28,1.2802,1.28,1.2793,1.2794,1.2796,1.2776,1.2776,1.2776,0,0,1.3034,1.3019,1.3013,1.2997,1.2974,1.2957,1.2956,1.2929,1.2918,1.2904,1.2884,1.2873,1.2849,1.2833,1.2822,1.283,1.2815,1.2826,1.2837,1.2831,1.2832,1.2833,1.2834,1.2835,1.2826,1.2826,1.2826,0,1.3052,1.3034,1.3011,1.3001,1.299,1.2966,1.2959,1.2945,1.2919,1.2911,1.2904,1.2872,1.2856,1.284,1.2842,1.2835,1.2831,1.2829,1.2834,1.2835,1.2835,1.2836,1.2837,1.2827,1.2827,1.2827,1.2827,0,1.3056,1.3044,1.3042,1.3016,1.3005,1.2996,1.2971,1.2962,1.2948,1.2931,1.2917,1.2896,1.2875,1.2871,1.2857,1.2853,1.2849,1.2839,1.2828,1.2839,1.2839,1.2839,1.2829,1.2829,1.2828,1.2828,0,0,1.3091,1.3052,1.3051,1.3038,1.301,1.3,1.299,1.2969,1.2961,1.2943,1.2933,1.2912,1.2901,1.2889,1.2873,1.2867,1.2872,1.2857,1.2856,1.2859,1.2864,1.2871,1.2872,1.2862,1.2862,1.2862,1.2865,0,1.3101,1.3082,1.306,1.3048,1.3035,1.3011,1.3002,1.2983,1.2967,1.2953,1.2935,1.292,1.2908,1.2899,1.2893,1.2873,1.2873,1.2873,1.2851,1.2851,1.2857,1.2873,1.2881,1.2885,1.2865,1.2865,1.2865,0,1.3111,1.3094,1.308,1.3051,1.3045,1.3037,1.3015,1.3003,1.2981,1.2969,1.2954,1.2937,1.2923,1.2913,1.2893,1.2894,1.2883,1.2872,1.2872,1.2868,1.2858,1.2868,1.2886,1.2886,1.2866,1.2866,1.2866,0,1.3135,1.3109,1.3096,1.3086,1.3053,1.3048,1.3033,1.3011,1.2999,1.298,1.2972,1.2952,1.2941,1.2925,1.2902,1.2897,1.2884,1.2873,1.2872,1.2873,1.287,1.2871,1.2885,1.2865,1.2865,1.2865,1.2865,0,1.3149,1.3141,1.3106,1.3099,1.3089,1.3064,1.3054,1.3037,1.3017,1.3005,1.2983,1.2972,1.2943,1.2928,1.291,1.2895,1.289,1.2879,1.2874,1.2881,1.2882,1.2873,1.2872,1.2866,1.2865,1.2865,1.2865,0,1.3174,1.3151,1.3136,1.3105,1.3097,1.3091,1.3064,1.3055,1.3037,1.3022,1.3017,1.2988,1.2969,1.2945,1.2918,1.2906,1.2892,1.2886,1.29,1.2897,1.2898,1.2897,1.2906,1.2906,1.2888,1.2888,1.2888,0,1.3184,1.3177,1.3145,1.3135,1.3122,1.3107,1.3094,1.3069,1.3057,1.303,1.3024,1.3003,1.2985,1.2956,1.2932,1.2911,1.2903,1.2907,1.29,1.2905,1.2901,1.2902,1.29,1.2909,1.2909,1.291,1.291,0,1.3202,1.3191,1.3174,1.3153,1.3139,1.3122,1.3103,1.3096,1.3067,1.3054,1.3034,1.302,1.2993,1.2972,1.2947,1.2932,1.2915,1.2913,1.2911,1.2917,1.2925,1.2919,1.2904,1.2912,1.2912,1.2912,1.2912,1.2912,1.3219,1.3211,1.3187,1.3169,1.3152,1.3135,1.3124,1.3104,1.3088,1.3063,1.3049,1.3029,1.3005,1.297,1.2955,1.2939,1.2933,1.2931,1.293,1.293,1.2932,1.2929,1.2934,1.2934,1.2934,1.2934,1.2934,0,1.3234,1.3218,1.3202,1.3176,1.3161,1.3147,1.3125,1.3114,1.3097,1.3076,1.3058,1.3035,1.3014,1.2988,1.2965,1.2957,1.2949,1.2952,1.2952,1.2948,1.2939,1.2942,1.2959,1.2959,1.2959,1.2959,1.2959,1.2959,1.3241,1.3226,1.3212,1.3188,1.3171,1.3152,1.314,1.3124,1.3107,1.3081,1.3064,1.3048,1.3024,1.2999,1.2979,1.2972,1.2964,1.2969,1.2959,1.2951,1.2949,1.2947,1.2949,1.2967,1.2967,1.2969,1.2969,1.2969]},{"header":{"parameterUnit":"m.s-1","parameterCategory":1,"la1":30.2991,"la2":30.254,"lo1":-89.0895,"lo2":-89.0444,"dy":0.0017,"dx":0.0017,"nx":28,"ny":28,"refTime":"2025-09-03T03:00:00:Z","depth":0,"parameterNumber":3,"parameterNumberName":"V-component_of_WINDS"},"data":[0,0,0,0,0,0,0,0,0,0,0,0,0,0,0,0,0,0,0,0,0,0,0,0,0,0,0,0,0,0,0,0,0,0,0,0,0,0,0,0,0,0,0,0,0,0,0,0,0,0,0,0,0,0,0,0,0,0,1.6697,1.6698,0,1.6763,1.6764,1.6765,1.6762,1.6761,1.676,1.6759,1.6824,1.6827,1.6829,0,0,0,0,0,0,0,0,0,0,0,0,0,1.6565,1.6567,1.6697,1.6698,1.6699,1.6763,1.6764,1.6765,1.6762,1.6761,1.676,1.6759,1.6823,1.6827,1.683,0,0,0,0,0,0,0,0,0,0,0,0,0,1.6625,1.6568,1.6697,1.6705,1.6707,1.6763,1.6764,1.6765,1.6762,1.6761,1.676,1.6758,1.6822,1.6826,1.683,1.6881,0,0,1.6842,1.6844,0,0,0,0,0,0,0,0,1.6622,1.663,1.6703,1.6705,1.6707,1.6753,1.6741,1.6804,1.6763,1.6741,1.6759,1.6758,1.6802,1.6807,1.6822,1.6884,1.6887,1.6842,1.6845,1.6846,1.6847,0,0,0,0,0,0,0,1.6618,1.6627,1.6723,1.6704,1.6706,1.6704,1.6711,1.6753,1.6778,1.6743,1.6743,1.6751,1.6802,1.6819,1.6824,1.6888,1.6842,1.6846,1.6848,1.6849,1.6992,1.6993,0,0,0,0,0,0,1.6612,1.6624,1.6721,1.6725,1.666,1.6708,1.6716,1.6739,1.6778,1.6782,1.6752,1.6751,1.6813,1.6819,1.6826,1.6886,1.6846,1.685,1.6852,1.699,1.6992,1.6994,0,0,0,0,0,0,1.661,1.6621,1.6718,1.6675,1.6687,1.6712,1.6738,1.6741,1.6758,1.6785,1.6789,1.6765,1.6812,1.6821,1.6867,1.6889,1.6852,1.6855,1.6989,1.6991,1.6993,1.7009,0,0,0,0,0,0,1.6606,1.662,1.6641,1.6675,1.6689,1.676,1.674,1.6744,1.6765,1.6764,1.6797,1.6802,1.6811,1.6861,1.6871,1.6893,1.6858,1.6987,1.699,1.6992,1.7006,1.7011,1.7015,0,0,0,0,0,1.6601,1.6643,1.6642,1.6654,1.6716,1.6761,1.6769,1.678,1.6767,1.6787,1.6804,1.6801,1.6885,1.6866,1.6877,1.6901,1.6985,1.6989,1.6992,1.7004,1.701,1.7015,0,0,0,0,0,0,1.6612,1.6648,1.6647,1.6702,1.6729,1.6761,1.6787,1.6787,1.6817,1.6814,1.6826,1.6833,1.6879,1.6895,1.6873,1.695,1.6933,1.6939,1.6939,1.6945,1.6949,1.6944,1.6861,0,0,0,0,0,1.662,1.6655,1.6684,1.673,1.6743,1.6763,1.6783,1.6789,1.6816,1.6827,1.6847,1.6873,1.6905,1.6926,1.6957,1.7009,1.7014,1.703,1.7034,1.7038,1.7042,1.7068,1.7074,1.7004,1.7004,1.7004,0,0,1.6639,1.6663,1.6684,1.6732,1.6754,1.6787,1.6772,1.6809,1.6833,1.6832,1.6877,1.6892,1.6922,1.697,1.6992,1.6984,1.7063,1.7042,1.7045,1.7047,1.7072,1.7078,1.7084,1.7007,1.7006,1.7006,0,0,1.6689,1.6712,1.6751,1.6772,1.6804,1.6816,1.6825,1.6857,1.6867,1.6912,1.691,1.6939,1.6995,1.7014,1.7032,1.7086,1.7083,1.7096,1.7119,1.7143,1.7149,1.7154,1.7171,1.7177,1.71,1.71,1.71,0,1.6708,1.676,1.6771,1.6807,1.6827,1.6827,1.6865,1.6885,1.6925,1.6938,1.6929,1.6996,1.7016,1.7068,1.708,1.7095,1.7104,1.7092,1.7147,1.7152,1.7157,1.7173,1.718,1.7101,1.7101,1.7101,1.7101,0,1.6779,1.6815,1.6842,1.6881,1.6904,1.6941,1.6956,1.6977,1.698,1.6993,1.7037,1.706,1.7095,1.7107,1.7111,1.7159,1.7152,1.7145,1.7128,1.7165,1.718,1.7187,1.7103,1.7103,1.7102,1.7102,0,0,1.684,1.6882,1.6892,1.6908,1.6941,1.6968,1.7004,1.7037,1.7055,1.7081,1.711,1.7156,1.7148,1.7168,1.7173,1.7195,1.7233,1.7185,1.7185,1.7191,1.7283,1.7288,1.7295,1.7231,1.7233,1.7234,1.728,0,1.6893,1.6957,1.6966,1.7022,1.7053,1.7052,1.7083,1.7105,1.7117,1.7144,1.7157,1.7188,1.7177,1.7188,1.721,1.7224,1.7251,1.7221,1.7256,1.7257,1.7248,1.7303,1.7309,1.7352,1.7286,1.7288,1.7288,0,1.6963,1.6991,1.705,1.7076,1.7089,1.7117,1.7147,1.7173,1.7198,1.7204,1.7225,1.7227,1.7261,1.7243,1.7289,1.7268,1.7282,1.7291,1.7293,1.7296,1.7275,1.7306,1.7366,1.7372,1.7298,1.7298,1.7297,0,1.6998,1.7051,1.7092,1.7106,1.7138,1.7157,1.7171,1.7194,1.7213,1.7238,1.725,1.7279,1.7295,1.7317,1.7326,1.7312,1.737,1.7353,1.7375,1.7375,1.7387,1.7386,1.7449,1.7399,1.7399,1.7399,1.7399,0,1.7055,1.7091,1.7108,1.7133,1.7172,1.7181,1.7218,1.7232,1.7252,1.7278,1.7279,1.7303,1.7314,1.7339,1.7347,1.7382,1.739,1.7394,1.7396,1.7394,1.7393,1.7403,1.74,1.74,1.74,1.74,1.7399,0,1.7102,1.7115,1.7159,1.7185,1.7192,1.722,1.7241,1.7264,1.7275,1.7308,1.7316,1.7332,1.7362,1.7373,1.7409,1.7414,1.7454,1.7454,1.7446,1.7446,1.7467,1.7464,1.7537,1.7546,1.7492,1.7492,1.7493,0,1.7137,1.7164,1.7192,1.721,1.7224,1.7253,1.7271,1.728,1.7299,1.7327,1.7346,1.7376,1.74,1.7447,1.7461,1.7488,1.7487,1.7511,1.7491,1.7487,1.7485,1.7483,1.7484,1.7514,1.7515,1.7515,1.7515,0,1.7197,1.7201,1.7228,1.7256,1.7278,1.7301,1.7323,1.7337,1.7349,1.7369,1.74,1.7418,1.7454,1.7482,1.7509,1.7522,1.752,1.7521,1.7527,1.7525,1.7519,1.752,1.7454,1.752,1.7519,1.7519,1.7519,1.7518,1.7238,1.726,1.7283,1.7312,1.7329,1.7349,1.7371,1.7383,1.7409,1.7439,1.7442,1.7474,1.7494,1.753,1.7544,1.7567,1.7561,1.7571,1.7573,1.7575,1.7575,1.7516,1.7573,1.7573,1.7572,1.7572,1.7572,0,1.7296,1.7309,1.7336,1.7366,1.7388,1.7384,1.7407,1.7426,1.7453,1.7473,1.7496,1.7529,1.7555,1.7571,1.7597,1.7613,1.7612,1.7619,1.7617,1.762,1.758,1.7572,1.7619,1.7619,1.7619,1.7619,1.7619,1.7619,1.7329,1.7366,1.7372,1.7417,1.743,1.7461,1.7474,1.7491,1.7507,1.7543,1.7565,1.7575,1.7592,1.7619,1.7642,1.7646,1.7655,1.7662,1.7665,1.7628,1.7623,1.7618,1.761,1.7664,1.7664,1.7702,1.7702,1.7703]}]]